Weather History for Fort Leonard Wood, MO

Change the Weather History Date:

Monday, January 7, 2013

  Actual Average Record
Temperature  
Mean Temperature 34 °F -  
Max Temperature 49 °F 40 °F 70 °F (2008)
Min Temperature 18 °F 27 °F -7 °F (2014)
Degree Days  
Heating Degree Days 32    
Moisture  
Dew Point 21 °F    
Average Humidity 64    
Maximum Humidity 90    
Minimum Humidity 33    
Precipitation  
Precipitation 0.00 in - - ()
Sea Level Pressure  
Sea Level Pressure 30.28 in    
Wind  
Wind Speed 7 mph (SSE)    
Max Wind Speed 13 mph    
Max Gust Speed 17 mph    
Visibility 10 miles    
Events      
Averages and records for this station are not official NWS values.
T = Trace of Precipitation, MM = Missing Value Source: NWS Daily Summary

Daily Weather History Graph

Daily Weather History Graph

Search for Another Location

Airport:

Trip Planner

Search our weather history database for the weather conditions in past years. The results will help you decide how hot, cold, wet, or windy it might be!

Date:

Astronomy

Jan. 07, 2013 Rise Set
Actual Time 7:24 AM CST 5:06 PM CST
Civil Twilight 6:55 AM CST 5:35 PM CST
Nautical Twilight 6:22 AM CST 6:07 PM CST
Astronomical Twilight 5:50 AM CST 6:39 PM CST
Moon 2:49 AM CST (1/7) 1:16 PM CST (1/7)
Length of Visible Light 10h 39m
Length of Day
9h 41m
Waning Crescent, 22% of the Moon is Illuminated
Jan 7
Waning Crescent
Jan 11
New
Jan 18
First Quarter
Jan 26
Full
Feb 3
Last Quarter

Hourly Weather History & Observations

Time (CST) Temp. Windchill Dew Point Humidity Pressure Visibility Wind Dir Wind Speed Gust Speed Precip Events Conditions
12:55 AM 21.4 °F 15.1 °F 17.8 °F 86% 30.38 in 10.0 mi SSW 4.6 mph - N/A   Clear
1:55 AM 20.5 °F 14.0 °F 17.2 °F 87% 30.38 in 10.0 mi SSE 4.6 mph - N/A   Clear
2:55 AM 21.0 °F 12.4 °F 17.4 °F 86% 30.38 in 10.0 mi SSE 6.9 mph - N/A   Clear
3:55 AM 18.7 °F 9.5 °F 16.2 °F 90% 30.37 in 10.0 mi SE 6.9 mph - N/A   Clear
4:55 AM 20.1 °F 8.1 °F 17.4 °F 89% 30.34 in 10.0 mi SE 11.5 mph - N/A   Clear
5:55 AM 19.4 °F 11.5 °F 16.5 °F 89% 30.35 in 10.0 mi SSE 5.8 mph - N/A   Clear
6:55 AM 20.5 °F 9.2 °F 17.2 °F 87% 30.35 in 10.0 mi SE 10.4 mph - N/A   Clear
7:55 AM 22.8 °F 12.9 °F 18.1 °F 82% 30.37 in 10.0 mi SSE 9.2 mph - N/A   Clear
8:55 AM 30.6 °F 23.8 °F 22.3 °F 71% 30.37 in 10.0 mi SSE 6.9 mph - N/A   Clear
9:55 AM 36.7 °F 31.2 °F 23.4 °F 59% 30.37 in 10.0 mi South 6.9 mph - N/A   Clear
10:55 AM 42.3 °F 35.5 °F 22.1 °F 45% 30.33 in 10.0 mi South 12.7 mph 17.3 mph N/A   Clear
11:55 AM 46.2 °F 42.7 °F 22.1 °F 39% 30.28 in 10.0 mi Variable 6.9 mph - N/A   Clear
12:55 PM 48.4 °F - 21.4 °F 35% 30.25 in 10.0 mi South 8.1 mph - N/A   Clear
1:55 PM 49.6 °F - 21.7 °F 33% 30.22 in 10.0 mi South 8.1 mph - N/A   Clear
2:55 PM 48.2 °F - 22.5 °F 36% 30.22 in 10.0 mi South 8.1 mph - N/A   Clear
3:55 PM 47.3 °F - 21.7 °F 36% 30.22 in 10.0 mi South 3.5 mph - N/A   Clear
4:55 PM 45.1 °F 41.4 °F 24.1 °F 44% 30.21 in 10.0 mi South 6.9 mph - N/A   Clear
5:55 PM 41.2 °F 37.3 °F 23.5 °F 50% 30.21 in 10.0 mi South 5.8 mph - N/A   Clear
6:55 PM 37.2 °F 31.9 °F 23.2 °F 57% 30.19 in 10.0 mi SSE 6.9 mph - N/A   Partly Cloudy
7:55 PM 35.1 °F 28.6 °F 23.7 °F 63% 30.19 in 10.0 mi SSE 8.1 mph - N/A   Clear
8:55 PM 34.5 °F 27.9 °F 24.3 °F 66% 30.18 in 10.0 mi SSE 8.1 mph - N/A   Clear
9:55 PM 34.9 °F 29.0 °F 23.7 °F 64% 30.17 in 10.0 mi SSE 6.9 mph - N/A   Clear
10:55 PM 34.3 °F 28.4 °F 23.7 °F 65% 30.16 in 10.0 mi SSE 6.9 mph - N/A   Partly Cloudy
11:55 PM 33.3 °F 27.1 °F 23.9 °F 69% 30.14 in 10.0 mi South 6.9 mph - N/A   Clear